Emmanuel Tomasos — C6SS7 — position and weather

sailwx.info

Track history (hours):
 
Tides and Currents Weather Stations Pressure Air Temp Water Temp Dewpoint Dewpoint Depression Visibility Wind Speed Wind Dir Waves Ship Positions

Emmanuel Tomasos

Last reported at 2014-Jul-24 12:12 UTC. Time now 2014-Jul-24 21:39 UTC.
Position N 33°54' E 035°33'.

Length 181 m; draft 9.6 m.

Type: Tanker. MMSI: 311459000.

Date/timePositionNaut miles runAvg speedWind from/ knotsBaromVisibWave heightAir tempDewpointWater temp
2014-Jul-24 12:12N 33°54' E 035°33'2 1.8
2014-Jul-24 11:11N 33°55' E 035°31'0 0.4
2014-Jul-24 10:31N 33°55' E 035°31'63 7.0
2014-Jul-24 01:33N 34°06' E 034°16'1713.5
2014-Jul-24 00:18N 34°10' E 033°56'1013.4
2014-Jul-23 23:32N 34°13' E 033°44'1313.4
2014-Jul-23 22:33N 34°16' E 033°29'1313.5
2014-Jul-23 21:33N 34°19' E 033°13'1313.4
2014-Jul-23 20:33N 34°23' E 032°57'1413.5
2014-Jul-23 19:33N 34°27' E 032°42'1413.6
2014-Jul-23 18:33N 34°31' E 032°26'1413.7
2014-Jul-23 17:33N 34°35' E 032°10'1413.9
2014-Jul-23 16:33N 34°40' E 031°54'19313.5
2014-Jul-23 02:14N 35°40' E 028°10'812.6
2014-Jul-23 01:33N 35°42' E 028°00'1312.7
2014-Jul-23 00:31N 35°47' E 027°45'7013.0
2014-Jul-22 19:07N 36°39' E 026°48'713.1
2014-Jul-22 18:33N 36°46' E 026°44'1313.1
2014-Jul-22 17:32N 36°58' E 026°38'1312.9
2014-Jul-22 16:33N 37°07' E 026°26'1313.1
2014-Jul-22 15:33N 37°15' E 026°13'1313.1
2014-Jul-22 14:32N 37°24' E 026°01'1313.5
2014-Jul-22 13:33N 37°35' E 025°52'1913.3
2014-Jul-22 12:05N 37°53' E 025°42'813.6
2014-Jul-22 11:30N 38°01' E 025°38'1413.4
2014-Jul-22 10:27N 38°13' E 025°31'10412.9
2014-Jul-22 02:27N 39°55' E 025°53'1313.4
2014-Jul-22 01:29N 40°01' E 026°08'  
Track history (hours):
 
Tides and Currents Weather Stations Pressure Air Temp Water Temp Dewpoint Dewpoint Depression Visibility Wind Speed Wind Dir Waves Ship Positions

Emmanuel Tomasos

Last reported at 2014-Jul-24 12:12 UTC. Time now 2014-Jul-24 21:39 UTC.
Position N 33°54' E 035°33'.

Length 181 m; draft 9.6 m.

Type: Tanker. MMSI: 311459000.

Date/timePositionNaut miles runAvg speedWind from/ knotsBaromVisibWave heightAir tempDewpointWater temp
2014-Jul-24 12:12N 33°54' E 035°33'2 1.8
2014-Jul-24 11:11N 33°55' E 035°31'0 0.4
2014-Jul-24 10:31N 33°55' E 035°31'63 7.0
2014-Jul-24 01:33N 34°06' E 034°16'1713.5
2014-Jul-24 00:18N 34°10' E 033°56'1013.4
2014-Jul-23 23:32N 34°13' E 033°44'1313.4
2014-Jul-23 22:33N 34°16' E 033°29'1313.5
2014-Jul-23 21:33N 34°19' E 033°13'1313.4
2014-Jul-23 20:33N 34°23' E 032°57'1413.5
2014-Jul-23 19:33N 34°27' E 032°42'1413.6
2014-Jul-23 18:33N 34°31' E 032°26'1413.7
2014-Jul-23 17:33N 34°35' E 032°10'1413.9
2014-Jul-23 16:33N 34°40' E 031°54'19313.5
2014-Jul-23 02:14N 35°40' E 028°10'812.6
2014-Jul-23 01:33N 35°42' E 028°00'1312.7
2014-Jul-23 00:31N 35°47' E 027°45'7013.0
2014-Jul-22 19:07N 36°39' E 026°48'713.1
2014-Jul-22 18:33N 36°46' E 026°44'1313.1
2014-Jul-22 17:32N 36°58' E 026°38'1312.9
2014-Jul-22 16:33N 37°07' E 026°26'1313.1
2014-Jul-22 15:33N 37°15' E 026°13'1313.1
2014-Jul-22 14:32N 37°24' E 026°01'1313.5
2014-Jul-22 13:33N 37°35' E 025°52'1913.3
2014-Jul-22 12:05N 37°53' E 025°42'813.6
2014-Jul-22 11:30N 38°01' E 025°38'1413.4
2014-Jul-22 10:27N 38°13' E 025°31'10412.9
2014-Jul-22 02:27N 39°55' E 025°53'1313.4
2014-Jul-22 01:29N 40°01' E 026°08'  

Dump ship's entire track history